Flag for New Zealand Weather past 2 weeks in Christchurch, New Zealand

Now
48 °F

Partly sunny.


Feels Like: 45 °F
Forecast: 44 / 52 °F
Wind: 8 mph from Northeast

Location: Christchurch Airport

Current Time: Aug 29, 2014 at 12:07:18 PM

Latest Report: Aug 29, 2014 at 11:30 AM


Visibility: N/A

Pressure: 30.63 "Hg

Humidity: 87%

Dew point: 45 °F

Location of ChristchurchLocation

Historic Weather in Christchurch — Graph

°F

Christchurch temperature yesterday

Maximum temperature yesterday: 55 °F (at 1:00 PM)
Minimum temperature yesterday: 28 °F (at 7:30 AM)
Average temperature yesterday: 45 °F

Past Weeks' High & Low Weather Summary

 TemperatureHumidityPressure
High59 °F (Aug 18, 2:30 PM)100% (Aug 16, 11:00 PM)30.63 "Hg (Aug 16, 11:00 PM)
Low28 °F (Aug 17, 3:30 AM)41% (Aug 22, 2:30 PM)29.30 "Hg (Aug 14, 10:00 AM)
Average44 °F82%30.24 "Hg
* Reported Aug 14 10:00 AM — Aug 29 10:30 AM, Christchurch, Weather by CustomWeather, © 2014

Note: Actual official high and low records may vary slightly from our data, if they occured in-between our weather recording intervals... More about our weather records

Advertising

Christchurch weather history for previous 24 hours

 ConditionsComfort  
Time TempWeatherWind HumidityBarometerVisibility
10:30 AM
Aug 29
48 °FPassing clouds.2 mph82%30.63 "HgN/A
10:00 AM45 °FQuite cool.No wind93%30.63 "HgN/A
9:30 AM41 °FPartly sunny.2 mph100%30.63 "HgN/A
8:30 AM32 °FChilly.2 mph100%30.63 "Hg6 mi
8:00 AM30 °FChilly.No wind100%30.63 "Hg6 mi
7:30 AM32 °FPassing clouds.No wind100%30.63 "HgN/A
7:00 AM32 °FPassing clouds.5 mph100%30.60 "Hg5 mi
6:30 AM30 °FFog.3 mph100%30.60 "Hg4 mi
6:00 AM30 °FIce fog.No wind100%30.60 "Hg1 mi
5:30 AM30 °FIce fog.No wind100%30.60 "Hg0 mi
5:00 AM32 °FIce fog.No wind100%30.60 "Hg0 mi
4:30 AM34 °FIce fog.3 mph100%30.60 "Hg1 mi
4:00 AM32 °FIce fog.No wind100%30.60 "Hg0 mi
3:30 AM34 °FFog.No wind100%30.60 "Hg0 mi
3:00 AM34 °FFog.2 mph100%30.60 "Hg1 mi
2:30 AM36 °FFog.3 mph100%30.60 "Hg0 mi
2:00 AM37 °FFog.2 mph100%30.60 "Hg0 mi
1:30 AM39 °FFog.1 mph100%30.60 "Hg1 mi
1:00 AM43 °FFog.1 mph100%30.60 "Hg1 mi
12:30 AM43 °FFog.2 mph100%30.60 "Hg2 mi
12:00 AM43 °FPassing clouds.3 mph100%30.60 "Hg4 mi
11:30 PM
Aug 28
45 °FPassing clouds.3 mph100%30.60 "HgN/A
11:00 PM46 °FPartly cloudy.8 mph93%30.60 "HgN/A
10:30 PM46 °FPassing clouds.7 mph93%30.60 "HgN/A
10:00 PM46 °FPassing clouds.7 mph93%30.60 "HgN/A
9:30 PM46 °FPartly cloudy.8 mph100%30.60 "HgN/A
9:00 PM48 °FPassing clouds.8 mph94%30.57 "HgN/A
8:30 PM48 °FPassing clouds.9 mph94%30.57 "HgN/A
8:00 PM48 °FPartly cloudy.8 mph94%30.57 "HgN/A
7:30 PM48 °FPassing clouds.9 mph87%30.57 "HgN/A
7:00 PM48 °FPartly cloudy.8 mph94%30.57 "HgN/A
6:30 PM48 °FPassing clouds.8 mph87%30.57 "HgN/A
6:00 PM48 °FPassing clouds.10 mph87%30.54 "HgN/A
5:30 PM48 °FPassing clouds.12 mph87%30.54 "HgN/A
5:00 PM50 °FPassing clouds.12 mph76%30.54 "HgN/A
4:30 PM52 °FCool.13 mph72%30.54 "HgN/A
4:00 PM52 °FCool.15 mph67%30.54 "HgN/A
3:30 PM54 °FCool.13 mph63%30.54 "HgN/A
2:30 PM54 °FCool.12 mph58%30.54 "HgN/A
2:00 PM55 °FRefreshingly cool.9 mph55%30.54 "HgN/A
1:30 PM55 °FRefreshingly cool.10 mph59%30.54 "HgN/A
1:00 PM55 °FCool.7 mph63%30.54 "HgN/A
12:30 PM54 °FCool.6 mph63%30.57 "HgN/A
12:00 PM54 °FPartly sunny.2 mph58%30.57 "HgN/A
Weather by CustomWeather, © 2014

See weather overviewHow to use our weather pages